Regional Weather Roundup
Issued by NWS Little Rock, AR

Home | Current Version | Previous Version | Text Only | Print | Product List | Glossary On
Versions: 1 2 3 4 5 6 7 8 9 10 11 12 13 14 15 16 17 18 19 20 21 22 23 24 25 26 27 28 29 30 31 32 33 34 35 36 37 38 39 40 41 42 43 44 45 46 47 48 49 50
000
ASUS44 KLZK 262305
RWRLZK

WEATHER ROUNDUP FOR ARKANSAS
NATIONAL WEATHER SERVICE LITTLE ROCK AR
500 PM CST FRI DEC 26 2014

NOTE: "FAIR" INDICATES FEW OR NO CLOUDS BELOW 12,000 FEET WITH NO
SIGNIFICANT WEATHER AND/OR OBSTRUCTIONS TO VISIBILITY.

ARZ001-003-010-029-270000-
NORTHWEST ARKANSAS

CITY           SKY/WX    TMP DP  RH WIND       PRES   REMARKS
FAYETTEVILLE   CLOUDY    52  49  89 S16       29.95R
FORT SMITH     LGT RAIN  51  49  92 NE6       29.97R FOG
HARRISON       CLOUDY    49  47  93 S16       29.99R
BENTONVILLE    CLOUDY    52  48  87 S6        29.95R
ROGERS         CLOUDY    51  49  92 SE8       29.95S
SILOAM SPGS    CLOUDY    52  45  76 S12       29.95S
HIGHFILL       CLOUDY    51  50  96 S6        29.94R
SPRINGDALE     CLOUDY    54  50  87 S12       29.96S
$$

ARZ004-005-016-270000-
NORTH CENTRAL ARKANSAS

CITY           SKY/WX    TMP DP  RH WIND       PRES   REMARKS
BATESVILLE     CLOUDY    54  39  58 SE9       30.07S
FLIPPIN        CLOUDY    52  43  71 SE6       30.02S
MTN HOME       CLOUDY    50  43  77 SE8       30.01F
$$

ARZ040-041-270000-
WEST CENTRAL ARKANSAS

CITY           SKY/WX    TMP DP  RH WIND       PRES   REMARKS
MENA           CLOUDY    55  54  94 SE8       29.98S
MOUNT IDA      LGT RAIN  51  49  92 E3        29.98S FOG
$$

ARZ009-017-025-026-028-270000-
NORTHEAST ARKANSAS

CITY           SKY/WX    TMP DP  RH WIND       PRES   REMARKS
CORNING        CLOUDY    52  45  76 SE7       30.11S
JONESBORO      CLOUDY    52  40  63 S13       30.11S
NEWPORT        CLOUDY    53  39  59 SE14      30.10F
WALNUT RIDGE   CLOUDY    52  39  62 S12       30.09S
BLYTHEVILLE    PTCLDY    52  39  61 S15       30.13R
$$

ARZ022-023-033-042-044-270000-
CENTRAL ARKANSAS

CITY           SKY/WX    TMP DP  RH WIND       PRES   REMARKS
LITTLE ROCK    CLOUDY    53  47  79 SE9       30.06F
N LITTLE ROCK  CLOUDY    51  49  93 SE10      30.06F
JACKSONVILLE   DRIZZLE   51  49  90 SE2       30.06S
SEARCY         CLOUDY    54  47  77 SE7       30.09F
HOT SPRINGS    RAIN      52  50  93 E7        30.04S FOG
RUSSELLVILLE   CLOUDY    50  48  93 VRB5      30.02F FOG
CLINTON        LGT RAIN  46  46 100 CALM      30.07F
$$

ARZ036-270000-
EAST ARKANSAS

CITY           SKY/WX    TMP DP  RH WIND       PRES   REMARKS
WEST MEMPHIS   MOCLDY    50  40  68 SE9       30.12S
$$

ARZ050-053-066-070-073-270000-
SOUTHWEST ARKANSAS

CITY           SKY/WX    TMP DP  RH WIND       PRES   REMARKS
ARKADELPHIA    LGT RAIN  52  52 100 SE5       30.05R FOG
CAMDEN         CLOUDY    54  48  82 MISG      30.06F
TEXARKANA      LGT RAIN  54  54 100 SE12G21   30.00S FOG
EL DORADO      MOCLDY    53  51  93 SE10      30.06S
DE QUEEN       LGT RAIN  55  53  93 SE7       29.98R FOG
$$

ARZ056-057-069-270000-
SOUTHEAST ARKANSAS

CITY           SKY/WX    TMP DP  RH WIND       PRES   REMARKS
PINE BLUFF     CLOUDY    54  47  77 SE10      30.08R
STUTTGART      CLOUDY    54  45  71 SE10      30.08F
MONTICELLO     LGT RAIN  52  49  89 SE6       30.10R

$$





USA.gov is the U.S. government's official web portal to all federal, state and local government web resources and services.